Weather History for KFRI - October, 2012

Change the Weather History Date:

Thursday, October 18, 2012

  Actual Average (KMHK) Record (KMHK)
Temperature  
Mean Temperature 52 °F 54 °F  
Max Temperature 61 °F 67 °F 87 °F (2005)
Min Temperature 45 °F 41 °F 24 °F (1999)
Degree Days  
Heating Degree Days 12 11  
Month to date heating degree days 153  
Since 1 July heating degree days 223  
Cooling Degree Days 0 0  
Month to date cooling degree days 21  
Year to date cooling degree days 1358  
Growing Degree Days 2 (Base 50)    
Moisture  
Dew Point 27 °F    
Average Humidity 36    
Maximum Humidity 46    
Minimum Humidity 24    
Precipitation  
Precipitation 0.00 in 0.07 in 0.39 in (2013)
Month to date precipitation 1.40  
Year to date precipitation 29.11  
Sea Level Pressure  
Sea Level Pressure 29.75 in    
Wind  
Wind Speed 12 mph (WNW)    
Max Wind Speed 23 mph    
Max Gust Speed 39 mph    
Visibility 10 miles    
Events      
T = Trace of Precipitation, MM = Missing Value Source: NWS Daily Summary

Daily Weather History Graph

Daily Weather History Graph

Search for Another Location

Airport or City:

Trip Planner

Search our weather history database for the weather conditions in past years. The results will help you decide how hot, cold, wet, or windy it might be!

Date:

Astronomy

Oct. 18, 2012 Rise Set
Actual Time 7:40 AM CDT 6:43 PM CDT
Civil Twilight 7:13 AM CDT 7:10 PM CDT
Nautical Twilight 6:42 AM CDT 7:41 PM CDT
Astronomical Twilight 6:11 AM CDT 8:12 PM CDT
Moon 11:21 AM CDT (10/18) 9:20 PM CDT (10/18)
Length of Visible Light 11h 57m
Length of Day
11h 03m
Waxing Crescent, 14% of the Moon is Illuminated
Oct 18
Waxing Crescent
Oct 21
First Quarter
Oct 29
Full
Nov 6
Last Quarter
Nov 13
New

Hourly Weather History & Observations

Time (CDT) Temp. Windchill Dew Point Humidity Pressure Visibility Wind Dir Wind Speed Gust Speed Precip Events Conditions
12:55 AM 51.1 °F - 27.5 °F 40% 29.75 in 10.0 mi West 9.2 mph - N/A   Partly Cloudy
1:55 AM 48.4 °F - 27.0 °F 43% 29.77 in 10.0 mi West 8.1 mph - N/A   Clear
2:55 AM 47.8 °F - 26.1 °F 43% 29.76 in 10.0 mi West 6.9 mph - N/A   Clear
3:55 AM 48.7 °F - 25.7 °F 41% 29.77 in 10.0 mi West 9.2 mph 17.3 mph N/A   Clear
4:55 AM 47.7 °F - 24.6 °F 41% 29.77 in 10.0 mi West 6.9 mph - N/A   Clear
5:55 AM 45.9 °F 41.7 °F 24.6 °F 43% 29.78 in 10.0 mi WSW 8.1 mph - N/A   Clear
6:55 AM 46.0 °F 41.9 °F 24.6 °F 43% 29.77 in 10.0 mi West 8.1 mph - N/A   Clear
7:55 AM 45.7 °F 40.6 °F 25.0 °F 44% 29.76 in 10.0 mi WSW 10.4 mph - N/A   Clear
8:55 AM 49.8 °F - 24.4 °F 37% 29.76 in 10.0 mi West 12.7 mph 25.3 mph N/A   Partly Cloudy
9:55 AM 53.2 °F - 23.4 °F 31% 29.75 in 10.0 mi West 16.1 mph 28.8 mph N/A   Clear
10:55 AM 55.8 °F - 21.4 °F 26% 29.75 in 10.0 mi WNW 19.6 mph 34.5 mph N/A   Clear
11:55 AM 58.3 °F - 21.6 °F 24% 29.74 in 10.0 mi WNW 23.0 mph 38.0 mph N/A   Clear
12:55 PM 60.3 °F - 23.4 °F 24% 29.73 in 10.0 mi NW 21.9 mph 36.8 mph N/A   Clear
1:55 PM 60.8 °F - 24.1 °F 25% 29.70 in 10.0 mi West 21.9 mph 39.1 mph N/A   Overcast
2:55 PM 60.1 °F - 24.4 °F 26% 29.70 in 10.0 mi NW 21.9 mph 32.2 mph N/A   Overcast
3:55 PM 60.4 °F - 25.7 °F 27% 29.70 in 10.0 mi NW 13.8 mph 34.5 mph N/A   Mostly Cloudy
4:55 PM 59.5 °F - 26.6 °F 28% 29.72 in 10.0 mi WNW 18.4 mph 27.6 mph N/A   Overcast
5:55 PM 58.1 °F - 29.3 °F 33% 29.74 in 10.0 mi NW 19.6 mph 32.2 mph N/A   Mostly Cloudy
6:55 PM 57.6 °F - 29.7 °F 35% 29.76 in 10.0 mi WNW 17.3 mph 28.8 mph N/A   Mostly Cloudy
7:55 PM 56.5 °F - 30.0 °F 36% 29.78 in 10.0 mi NNW 12.7 mph 23.0 mph N/A   Overcast
8:55 PM 54.1 °F - 32.7 °F 44% 29.79 in 10.0 mi NNW 5.8 mph - N/A   Overcast
9:55 PM 54.0 °F - 33.4 °F 46% 29.78 in 10.0 mi WNW 3.5 mph - N/A   Overcast
10:55 PM 55.6 °F - 32.5 °F 42% 29.77 in 10.0 mi WNW 8.1 mph 19.6 mph N/A   Overcast
11:55 PM 54.7 °F - 31.6 °F 42% 29.76 in 10.0 mi NW 20.7 mph 28.8 mph N/A   Overcast